Precipitable_Water
0.94 0.92 0.93 0.94 0.87 0.81 0.81 0.82 0.86 0.85 0.85 0.82 0.79 0.70 0.66 0.70 0.71 0.68 0.68 0.66 0.65 0.63 0.63 0.61 0.59 0.57 0.56 0.58 0.59 0.59 0.58 0.58 0.59 0.58 0.58 0.58 0.60 0.60 0.60 0.58 0.55 0.54 0.55 0.55 0.55 0.53 0.52 0.52 0.54 0.54 0.55 0.52 0.51 0.53 0.55 0.56 0.57 0.58 0.59 0.59 0.58 0.59 0.55 0.50 0.45 0.45 0.46 0.49 0.46 0.45 0.47 0.46 0.41 0.41 0.37 0.36 0.35 0.37 0.38 0.38 0.39 0.40 0.41 0.42 0.43
0.90 0.90 0.89 0.88 0.85 0.83 0.82 0.84 0.87 0.88 0.84 0.83 0.82 0.78 0.69 0.69 0.74 0.77 0.73 0.74 0.74 0.72 0.70 0.70 0.69 0.66 0.62 0.61 0.63 0.64 0.65 0.66 0.67 0.66 0.65 0.65 0.66 0.67 0.67 0.65 0.61 0.59 0.58 0.56 0.57 0.57 0.55 0.53 0.54 0.54 0.56 0.54 0.53 0.54 0.56 0.57 0.57 0.57 0.59 0.59 0.59 0.58 0.60 0.54 0.51 0.47 0.47 0.50 0.46 0.44 0.41 0.41 0.38 0.42 0.41 0.41 0.41 0.42 0.38 0.37 0.38 0.38 0.39 0.41 0.41
0.83 0.83 0.84 0.84 0.84 0.85 0.84 0.82 0.84 0.89 0.87 0.84 0.84 0.84 0.81 0.74 0.75 0.78 0.79 0.79 0.81 0.82 0.81 0.79 0.80 0.77 0.74 0.72 0.71 0.72 0.72 0.72 0.72 0.72 0.70 0.69 0.69 0.71 0.71 0.70 0.68 0.66 0.64 0.63 0.63 0.63 0.61 0.61 0.59 0.57 0.56 0.53 0.53 0.53 0.54 0.53 0.54 0.53 0.54 0.56 0.56 0.58 0.60 0.60 0.55 0.50 0.47 0.47 0.47 0.42 0.41 0.39 0.36 0.37 0.40 0.41 0.42 0.44 0.43 0.42 0.40 0.40 0.40 0.39 0.39
0.83 0.82 0.82 0.84 0.88 0.89 0.87 0.87 0.86 0.89 0.92 0.91 0.86 0.86 0.85 0.85 0.86 0.85 0.87 0.88 0.87 0.90 0.90 0.88 0.86 0.85 0.82 0.81 0.80 0.79 0.78 0.78 0.78 0.78 0.76 0.75 0.74 0.75 0.77 0.77 0.75 0.73 0.71 0.70 0.70 0.70 0.67 0.66 0.65 0.64 0.61 0.55 0.54 0.54 0.55 0.55 0.53 0.53 0.53 0.55 0.55 0.55 0.56 0.56 0.55 0.51 0.49 0.46 0.46 0.43 0.42 0.40 0.40 0.40 0.39 0.38 0.38 0.40 0.42 0.43 0.44 0.43 0.42 0.42 0.40
0.86 0.86 0.85 0.85 0.87 0.88 0.87 0.84 0.76 0.79 0.88 0.91 0.91 0.93 0.93 0.92 0.92 0.92 0.92 0.91 0.91 0.90 0.90 0.92 0.92 0.90 0.86 0.86 0.85 0.84 0.83 0.83 0.82 0.82 0.80 0.80 0.79 0.78 0.78 0.79 0.80 0.79 0.77 0.76 0.75 0.73 0.71 0.69 0.67 0.67 0.65 0.62 0.59 0.59 0.60 0.60 0.60 0.59 0.57 0.58 0.58 0.58 0.58 0.56 0.54 0.52 0.49 0.47 0.47 0.47 0.46 0.43 0.40 0.39 0.40 0.37 0.35 0.36 0.38 0.39 0.41 0.42 0.43 0.44 0.43
0.88 0.86 0.86 0.87 0.88 0.87 0.86 0.80 0.76 0.81 0.88 0.90 0.91 0.91 0.93 0.94 0.95 0.95 0.97 0.96 0.96 0.96 0.94 0.96 0.96 0.95 0.93 0.91 0.89 0.87 0.87 0.86 0.84 0.82 0.81 0.80 0.79 0.78 0.78 0.78 0.79 0.81 0.80 0.79 0.77 0.75 0.73 0.72 0.69 0.69 0.69 0.65 0.63 0.63 0.63 0.61 0.60 0.58 0.57 0.57 0.57 0.57 0.55 0.54 0.52 0.52 0.51 0.49 0.47 0.46 0.46 0.43 0.41 0.39 0.40 0.39 0.37 0.35 0.33 0.33 0.35 0.38 0.39 0.39 0.40
0.87 0.87 0.86 0.84 0.83 0.84 0.86 0.84 0.83 0.90 0.93 0.92 0.90 0.86 0.86 0.90 0.95 0.99 1.02 1.02 0.99 0.98 0.98 0.99 1.01 1.02 1.02 0.98 0.93 0.90 0.87 0.85 0.83 0.83 0.82 0.80 0.78 0.77 0.77 0.78 0.79 0.80 0.81 0.80 0.78 0.77 0.76 0.75 0.73 0.71 0.70 0.70 0.68 0.67 0.65 0.62 0.59 0.56 0.54 0.53 0.52 0.51 0.49 0.49 0.49 0.50 0.51 0.50 0.48 0.45 0.42 0.42 0.41 0.39 0.40 0.40 0.38 0.39 0.36 0.33 0.29 0.32 0.34 0.35 0.35
0.85 0.87 0.87 0.82 0.81 0.81 0.83 0.92 1.01 0.99 0.97 0.96 0.95 0.95 0.94 0.92 0.92 0.96 1.01 1.03 1.02 1.03 1.03 1.01 1.02 1.05 1.06 1.02 0.98 0.94 0.89 0.86 0.85 0.85 0.85 0.84 0.82 0.78 0.77 0.78 0.78 0.79 0.80 0.81 0.79 0.77 0.76 0.75 0.75 0.75 0.73 0.73 0.72 0.71 0.70 0.66 0.62 0.57 0.55 0.54 0.52 0.50 0.49 0.48 0.48 0.46 0.45 0.45 0.45 0.44 0.43 0.40 0.39 0.40 0.40 0.40 0.38 0.38 0.39 0.38 0.34 0.32 0.31 0.33 0.33
0.83 0.85 0.85 0.82 0.81 0.82 0.83 0.91 1.00 1.02 1.00 0.96 0.96 0.95 0.95 0.94 0.94 0.98 1.03 1.01 1.02 0.99 1.01 1.04 1.05 1.04 1.00 0.98 0.98 0.95 0.89 0.88 0.89 0.89 0.89 0.89 0.86 0.80 0.77 0.77 0.78 0.78 0.79 0.81 0.81 0.78 0.76 0.74 0.73 0.74 0.76 0.77 0.77 0.76 0.74 0.72 0.68 0.62 0.59 0.57 0.54 0.53 0.52 0.50 0.48 0.45 0.44 0.44 0.43 0.44 0.42 0.40 0.38 0.37 0.37 0.37 0.38 0.38 0.41 0.41 0.38 0.38 0.37 0.33 0.32
0.82 0.84 0.88 0.92 0.96 0.94 0.97 0.98 0.99 0.98 0.98 0.98 0.98 0.94 0.93 0.91 0.91 0.90 0.92 0.92 0.90 0.88 0.92 0.97 0.94 0.90 0.89 0.93 0.93 0.89 0.86 0.87 0.87 0.86 0.86 0.84 0.82 0.80 0.78 0.77 0.78 0.78 0.78 0.79 0.81 0.81 0.78 0.76 0.75 0.75 0.75 0.76 0.76 0.76 0.75 0.73 0.72 0.69 0.66 0.62 0.60 0.59 0.56 0.53 0.50 0.48 0.45 0.43 0.43 0.44 0.42 0.41 0.40 0.39 0.38 0.38 0.39 0.40 0.38 0.39 0.37 0.39 0.39 0.36 0.34
0.85 0.85 0.86 0.86 0.84 0.86 0.88 0.93 0.94 0.88 0.84 0.81 0.91 0.89 0.87 0.85 0.83 0.82 0.86 0.90 0.91 1.00 1.01 0.96 0.90 0.89 0.89 0.89 0.87 0.85 0.85 0.87 0.86 0.86 0.85 0.86 0.85 0.82 0.79 0.78 0.77 0.77 0.77 0.77 0.77 0.80 0.82 0.81 0.79 0.78 0.77 0.76 0.76 0.76 0.74 0.72 0.71 0.69 0.68 0.67 0.65 0.64 0.60 0.56 0.53 0.50 0.47 0.46 0.46 0.45 0.43 0.41 0.41 0.41 0.40 0.39 0.40 0.38 0.38 0.38 0.36 0.35 0.34 0.31 0.29
0.83 0.83 0.85 0.86 0.84 0.82 0.82 0.83 0.83 0.83 0.84 0.85 0.88 0.85 0.82 0.80 0.80 0.86 0.90 0.92 0.92 0.93 0.92 0.92 0.88 0.89 0.89 0.88 0.84 0.81 0.81 0.81 0.78 0.78 0.78 0.79 0.80 0.80 0.80 0.78 0.77 0.76 0.75 0.73 0.73 0.73 0.75 0.77 0.77 0.78 0.79 0.79 0.77 0.75 0.73 0.70 0.69 0.70 0.69 0.68 0.68 0.68 0.65 0.61 0.57 0.53 0.50 0.48 0.47 0.47 0.46 0.44 0.44 0.44 0.42 0.41 0.40 0.40 0.39 0.38 0.36 0.34 0.32 0.31 0.31
0.73 0.78 0.83 0.87 0.89 0.89 0.87 0.84 0.83 0.81 0.81 0.83 0.82 0.81 0.80 0.78 0.77 0.78 0.80 0.84 0.87 0.85 0.87 0.87 0.82 0.79 0.78 0.78 0.74 0.72 0.71 0.73 0.73 0.71 0.70 0.69 0.68 0.68 0.69 0.73 0.76 0.78 0.79 0.78 0.77 0.76 0.74 0.72 0.71 0.73 0.75 0.76 0.74 0.71 0.70 0.71 0.72 0.71 0.70 0.69 0.68 0.68 0.67 0.64 0.63 0.60 0.56 0.51 0.49 0.47 0.47 0.46 0.44 0.44 0.45 0.44 0.44 0.39 0.38 0.36 0.36 0.35 0.34 0.32 0.31
0.58 0.66 0.75 0.79 0.82 0.86 0.85 0.86 0.82 0.84 0.86 0.84 0.82 0.80 0.77 0.74 0.75 0.77 0.77 0.77 0.80 0.82 0.81 0.79 0.74 0.74 0.76 0.72 0.69 0.68 0.65 0.64 0.62 0.60 0.58 0.56 0.55 0.53 0.52 0.51 0.52 0.55 0.59 0.63 0.66 0.67 0.67 0.67 0.68 0.69 0.70 0.70 0.69 0.70 0.73 0.71 0.69 0.67 0.67 0.67 0.67 0.67 0.66 0.64 0.62 0.60 0.58 0.55 0.51 0.47 0.47 0.48 0.46 0.46 0.47 0.46 0.42 0.39 0.37 0.35 0.36 0.34 0.33 0.31 0.33
0.53 0.56 0.61 0.65 0.70 0.72 0.76 0.79 0.80 0.80 0.80 0.79 0.79 0.77 0.76 0.74 0.73 0.72 0.71 0.73 0.75 0.78 0.79 0.73 0.74 0.72 0.69 0.65 0.60 0.57 0.55 0.53 0.51 0.49 0.47 0.45 0.43 0.42 0.43 0.44 0.45 0.47 0.49 0.52 0.54 0.55 0.57 0.59 0.61 0.61 0.62 0.63 0.66 0.69 0.71 0.68 0.68 0.69 0.68 0.66 0.66 0.66 0.65 0.63 0.61 0.60 0.59 0.57 0.54 0.51 0.50 0.49 0.48 0.47 0.46 0.45 0.42 0.40 0.39 0.37 0.36 0.35 0.34 0.35 0.33
0.49 0.51 0.52 0.55 0.59 0.65 0.67 0.67 0.69 0.68 0.67 0.67 0.67 0.67 0.66 0.67 0.68 0.70 0.70 0.69 0.70 0.70 0.67 0.65 0.63 0.60 0.58 0.55 0.51 0.47 0.47 0.47 0.46 0.45 0.45 0.45 0.44 0.43 0.43 0.43 0.42 0.42 0.43 0.46 0.49 0.52 0.54 0.55 0.55 0.54 0.55 0.58 0.60 0.60 0.63 0.69 0.69 0.68 0.66 0.65 0.64 0.64 0.64 0.64 0.64 0.62 0.58 0.55 0.53 0.52 0.51 0.50 0.48 0.47 0.46 0.44 0.42 0.40 0.39 0.38 0.36 0.33 0.30 0.28 0.26
0.49 0.49 0.50 0.52 0.55 0.57 0.59 0.58 0.58 0.58 0.59 0.59 0.60 0.60 0.59 0.59 0.59 0.59 0.56 0.57 0.58 0.57 0.56 0.55 0.55 0.52 0.49 0.45 0.44 0.44 0.45 0.47 0.48 0.48 0.47 0.47 0.46 0.45 0.44 0.44 0.44 0.44 0.44 0.45 0.47 0.49 0.53 0.55 0.57 0.57 0.57 0.58 0.58 0.57 0.58 0.62 0.63 0.62 0.62 0.60 0.59 0.58 0.57 0.57 0.55 0.53 0.51 0.50 0.49 0.49 0.48 0.47 0.47 0.47 0.46 0.44 0.41 0.40 0.37 0.32 0.30 0.31 0.28 0.25 0.25
0.53 0.52 0.52 0.53 0.55 0.57 0.61 0.60 0.59 0.59 0.58 0.57 0.57 0.57 0.57 0.56 0.55 0.54 0.51 0.51 0.51 0.51 0.52 0.51 0.50 0.48 0.47 0.47 0.48 0.47 0.48 0.50 0.51 0.51 0.50 0.49 0.48 0.46 0.45 0.44 0.42 0.42 0.43 0.44 0.45 0.47 0.49 0.51 0.51 0.51 0.52 0.53 0.54 0.56 0.57 0.58 0.55 0.54 0.53 0.51 0.50 0.50 0.49 0.49 0.48 0.48 0.48 0.47 0.46 0.46 0.46 0.46 0.46 0.45 0.44 0.42 0.41 0.39 0.35 0.30 0.32 0.31 0.27 0.26 0.24
0.54 0.53 0.52 0.53 0.53 0.56 0.57 0.59 0.59 0.57 0.56 0.55 0.55 0.54 0.53 0.52 0.50 0.48 0.46 0.45 0.44 0.44 0.45 0.45 0.48 0.51 0.52 0.52 0.53 0.52 0.52 0.53 0.53 0.52 0.52 0.51 0.50 0.49 0.48 0.46 0.44 0.44 0.43 0.43 0.45 0.46 0.47 0.49 0.49 0.49 0.49 0.50 0.51 0.52 0.53 0.53 0.51 0.49 0.48 0.47 0.45 0.43 0.44 0.44 0.43 0.43 0.44 0.44 0.44 0.45 0.44 0.45 0.44 0.42 0.41 0.41 0.40 0.39 0.38 0.36 0.35 0.31 0.27 0.26 0.26
0.56 0.55 0.55 0.55 0.54 0.55 0.56 0.57 0.56 0.55 0.55 0.55 0.55 0.55 0.53 0.49 0.45 0.41 0.40 0.40 0.42 0.44 0.46 0.47 0.47 0.49 0.53 0.54 0.55 0.56 0.55 0.55 0.55 0.54 0.53 0.53 0.52 0.50 0.49 0.46 0.45 0.45 0.45 0.43 0.43 0.44 0.45 0.45 0.47 0.47 0.48 0.48 0.49 0.49 0.50 0.50 0.48 0.47 0.46 0.44 0.42 0.40 0.44 0.44 0.44 0.43 0.43 0.43 0.43 0.44 0.43 0.43 0.42 0.43 0.42 0.41 0.39 0.39 0.38 0.37 0.35 0.33 0.30 0.28 0.28
0.57 0.56 0.57 0.57 0.57 0.56 0.56 0.57 0.60 0.61 0.59 0.57 0.56 0.54 0.53 0.51 0.49 0.47 0.46 0.45 0.43 0.43 0.43 0.43 0.43 0.45 0.48 0.52 0.54 0.57 0.58 0.57 0.57 0.56 0.55 0.54 0.53 0.51 0.49 0.48 0.47 0.46 0.45 0.44 0.43 0.43 0.43 0.44 0.45 0.46 0.47 0.48 0.48 0.48 0.48 0.47 0.47 0.46 0.45 0.43 0.42 0.43 0.44 0.42 0.42 0.43 0.42 0.42 0.42 0.41 0.41 0.41 0.42 0.41 0.38 0.36 0.35 0.35 0.36 0.36 0.36 0.35 0.33 0.31 0.30
0.60 0.58 0.57 0.57 0.57 0.56 0.56 0.58 0.60 0.61 0.62 0.62 0.60 0.58 0.58 0.55 0.53 0.51 0.51 0.50 0.49 0.48 0.47 0.47 0.46 0.46 0.46 0.47 0.48 0.50 0.53 0.54 0.55 0.56 0.56 0.55 0.54 0.53 0.51 0.49 0.48 0.46 0.44 0.44 0.43 0.43 0.43 0.44 0.44 0.45 0.45 0.45 0.45 0.45 0.45 0.44 0.44 0.43 0.42 0.43 0.44 0.44 0.43 0.44 0.44 0.43 0.42 0.40 0.39 0.39 0.39 0.37 0.36 0.35 0.35 0.34 0.35 0.35 0.35 0.35 0.36 0.36 0.36 0.36 0.34
0.55 0.56 0.56 0.56 0.57 0.58 0.58 0.58 0.58 0.59 0.59 0.60 0.59 0.58 0.59 0.59 0.57 0.57 0.56 0.55 0.53 0.52 0.51 0.50 0.48 0.47 0.47 0.47 0.48 0.49 0.51 0.53 0.54 0.55 0.55 0.54 0.53 0.52 0.50 0.48 0.47 0.46 0.43 0.42 0.42 0.42 0.43 0.43 0.44 0.44 0.44 0.45 0.44 0.44 0.44 0.44 0.43 0.43 0.43 0.43 0.43 0.42 0.42 0.41 0.41 0.40 0.39 0.38 0.36 0.34 0.34 0.34 0.33 0.33 0.33 0.34 0.36 0.37 0.36 0.36 0.36 0.37 0.37 0.37 0.37
0.50 0.50 0.53 0.55 0.56 0.56 0.57 0.59 0.59 0.59 0.58 0.58 0.57 0.56 0.56 0.56 0.56 0.56 0.56 0.55 0.53 0.51 0.51 0.50 0.48 0.46 0.46 0.46 0.47 0.48 0.50 0.52 0.53 0.54 0.52 0.50 0.48 0.47 0.47 0.46 0.46 0.46 0.45 0.44 0.44 0.44 0.44 0.44 0.45 0.45 0.45 0.45 0.45 0.45 0.44 0.43 0.42 0.42 0.42 0.41 0.40 0.40 0.40 0.39 0.37 0.36 0.35 0.34 0.32 0.32 0.32 0.33 0.33 0.33 0.33 0.35 0.35 0.35 0.35 0.36 0.36 0.36 0.36 0.36 0.37
0.48 0.47 0.48 0.52 0.55 0.57 0.59 0.60 0.61 0.61 0.61 0.60 0.57 0.56 0.54 0.53 0.53 0.56 0.56 0.54 0.53 0.50 0.49 0.49 0.47 0.47 0.46 0.44 0.45 0.46 0.48 0.49 0.50 0.50 0.48 0.47 0.46 0.45 0.44 0.44 0.44 0.44 0.44 0.45 0.45 0.45 0.45 0.45 0.45 0.44 0.44 0.43 0.42 0.41 0.40 0.40 0.40 0.39 0.39 0.40 0.40 0.38 0.37 0.36 0.35 0.35 0.33 0.32 0.32 0.33 0.33 0.33 0.34 0.34 0.35 0.35 0.35 0.36 0.35 0.35 0.36 0.36 0.37 0.37 0.37
0.46 0.47 0.48 0.48 0.48 0.50 0.52 0.54 0.57 0.60 0.61 0.61 0.59 0.57 0.55 0.54 0.52 0.52 0.51 0.51 0.50 0.49 0.47 0.47 0.47 0.46 0.44 0.44 0.44 0.46 0.47 0.48 0.49 0.49 0.48 0.47 0.46 0.44 0.43 0.43 0.42 0.43 0.44 0.44 0.43 0.42 0.41 0.40 0.40 0.40 0.41 0.40 0.38 0.36 0.36 0.37 0.38 0.38 0.38 0.38 0.37 0.37 0.36 0.35 0.34 0.33 0.32 0.33 0.32 0.31 0.31 0.32 0.32 0.34 0.35 0.35 0.34 0.33 0.34 0.33 0.33 0.34 0.35 0.35 0.34
0.44 0.45 0.46 0.48 0.49 0.48 0.48 0.49 0.51 0.54 0.57 0.58 0.58 0.57 0.55 0.55 0.52 0.51 0.50 0.48 0.48 0.47 0.46 0.45 0.44 0.43 0.42 0.43 0.44 0.45 0.46 0.48 0.50 0.50 0.49 0.47 0.46 0.44 0.42 0.41 0.42 0.42 0.41 0.40 0.39 0.38 0.37 0.37 0.36 0.36 0.35 0.36 0.36 0.37 0.37 0.36 0.36 0.36 0.36 0.37 0.36 0.35 0.35 0.35 0.35 0.34 0.33 0.31 0.30 0.30 0.32 0.33 0.34 0.34 0.33 0.33 0.32 0.34 0.35 0.34 0.34 0.34 0.35 0.35 0.34
0.37 0.39 0.42 0.44 0.46 0.47 0.47 0.48 0.49 0.50 0.51 0.53 0.53 0.53 0.54 0.53 0.50 0.49 0.48 0.47 0.45 0.44 0.43 0.42 0.41 0.41 0.41 0.43 0.44 0.45 0.47 0.48 0.49 0.49 0.47 0.45 0.43 0.43 0.43 0.42 0.41 0.39 0.37 0.38 0.38 0.38 0.37 0.37 0.37 0.36 0.36 0.35 0.35 0.35 0.35 0.35 0.35 0.35 0.34 0.34 0.34 0.35 0.36 0.37 0.36 0.34 0.32 0.32 0.32 0.33 0.33 0.33 0.32 0.33 0.33 0.33 0.33 0.34 0.36 0.36 0.35 0.34 0.36 0.36 0.33
0.34 0.35 0.36 0.38 0.40 0.44 0.46 0.47 0.49 0.50 0.51 0.52 0.53 0.53 0.52 0.51 0.49 0.49 0.50 0.49 0.46 0.43 0.42 0.41 0.42 0.43 0.44 0.45 0.44 0.43 0.43 0.43 0.44 0.45 0.45 0.43 0.43 0.44 0.43 0.41 0.40 0.38 0.38 0.38 0.37 0.36 0.35 0.35 0.34 0.34 0.34 0.33 0.33 0.33 0.34 0.34 0.33 0.33 0.34 0.34 0.35 0.35 0.34 0.33 0.32 0.32 0.34 0.33 0.32 0.32 0.31 0.32 0.32 0.33 0.33 0.33 0.33 0.35 0.37 0.36 0.36 0.36 0.36 0.36 0.33
0.33 0.34 0.35 0.36 0.37 0.39 0.41 0.44 0.46 0.48 0.49 0.52 0.53 0.53 0.55 0.55 0.53 0.50 0.47 0.48 0.47 0.46 0.45 0.43 0.45 0.46 0.46 0.47 0.47 0.42 0.41 0.44 0.44 0.43 0.43 0.43 0.44 0.44 0.43 0.41 0.40 0.38 0.37 0.36 0.35 0.32 0.32 0.32 0.33 0.33 0.33 0.33 0.33 0.33 0.32 0.32 0.33 0.33 0.33 0.33 0.33 0.33 0.34 0.34 0.34 0.33 0.33 0.32 0.32 0.31 0.31 0.32 0.32 0.33 0.33 0.33 0.34 0.36 0.37 0.37 0.36 0.38 0.36 0.35 0.35
0.32 0.33 0.35 0.36 0.38 0.39 0.40 0.40 0.43 0.45 0.45 0.47 0.48 0.48 0.49 0.51 0.51 0.50 0.50 0.50 0.49 0.47 0.47 0.48 0.49 0.49 0.48 0.46 0.48 0.47 0.46 0.45 0.45 0.46 0.45 0.44 0.44 0.43 0.41 0.39 0.38 0.36 0.35 0.33 0.33 0.33 0.33 0.33 0.34 0.34 0.34 0.34 0.33 0.33 0.35 0.34 0.32 0.30 0.30 0.32 0.33 0.33 0.33 0.32 0.31 0.32 0.32 0.32 0.32 0.33 0.34 0.34 0.34 0.35 0.35 0.36 0.36 0.38 0.39 0.41 0.42 0.41 0.41 0.41 0.40
0.32 0.31 0.33 0.36 0.38 0.40 0.41 0.41 0.42 0.42 0.45 0.46 0.47 0.47 0.46 0.45 0.47 0.49 0.51 0.51 0.51 0.51 0.50 0.50 0.51 0.50 0.49 0.47 0.44 0.44 0.45 0.45 0.44 0.43 0.43 0.42 0.42 0.40 0.38 0.38 0.37 0.36 0.36 0.36 0.35 0.35 0.35 0.34 0.34 0.34 0.35 0.35 0.35 0.35 0.33 0.30 0.30 0.30 0.31 0.30 0.30 0.31 0.30 0.30 0.32 0.33 0.33 0.34 0.35 0.36 0.37 0.38 0.38 0.39 0.39 0.40 0.41 0.42 0.44 0.45 0.46 0.46 0.46 0.47 0.47
0.34 0.33 0.33 0.34 0.37 0.39 0.40 0.41 0.41 0.42 0.43 0.44 0.45 0.45 0.44 0.45 0.42 0.44 0.49 0.53 0.53 0.52 0.51 0.51 0.51 0.50 0.48 0.46 0.46 0.45 0.45 0.44 0.44 0.43 0.42 0.42 0.42 0.41 0.39 0.38 0.38 0.39 0.39 0.38 0.37 0.36 0.36 0.36 0.37 0.37 0.37 0.35 0.33 0.30 0.30 0.30 0.30 0.30 0.30 0.29 0.28 0.29 0.31 0.33 0.35 0.35 0.36 0.37 0.39 0.39 0.40 0.41 0.42 0.43 0.44 0.46 0.46 0.46 0.48 0.49 0.50 0.51 0.51 0.50 0.50
0.36 0.35 0.35 0.35 0.34 0.36 0.39 0.40 0.41 0.41 0.42 0.44 0.45 0.45 0.44 0.43 0.43 0.43 0.45 0.49 0.50 0.50 0.50 0.49 0.49 0.48 0.46 0.45 0.45 0.44 0.43 0.42 0.41 0.40 0.41 0.41 0.40 0.39 0.38 0.38 0.40 0.41 0.40 0.38 0.38 0.37 0.38 0.38 0.38 0.36 0.33 0.31 0.30 0.30 0.30 0.30 0.30 0.29 0.29 0.29 0.30 0.31 0.33 0.35 0.36 0.37 0.39 0.41 0.42 0.43 0.44 0.45 0.47 0.47 0.48 0.50 0.51 0.51 0.51 0.51 0.51 0.51 0.50 0.50 0.49
0.35 0.35 0.36 0.36 0.36 0.35 0.36 0.39 0.41 0.42 0.42 0.42 0.43 0.43 0.45 0.46 0.46 0.45 0.44 0.43 0.42 0.40 0.40 0.42 0.44 0.44 0.43 0.43 0.43 0.43 0.42 0.41 0.40 0.40 0.40 0.40 0.40 0.40 0.40 0.39 0.38 0.40 0.40 0.40 0.40 0.40 0.38 0.36 0.33 0.31 0.30 0.30 0.30 0.30 0.29 0.29 0.28 0.28 0.29 0.29 0.30 0.32 0.34 0.36 0.38 0.40 0.42 0.44 0.45 0.46 0.47 0.48 0.50 0.51 0.51 0.50 0.50 0.50 0.50 0.51 0.51 0.50 0.49 0.49 0.48
0.35 0.34 0.34 0.34 0.35 0.35 0.35 0.36 0.37 0.40 0.41 0.42 0.43 0.44 0.45 0.45 0.45 0.44 0.44 0.43 0.41 0.38 0.37 0.38 0.39 0.40 0.41 0.41 0.42 0.42 0.41 0.40 0.40 0.41 0.41 0.41 0.41 0.42 0.39 0.39 0.40 0.40 0.40 0.42 0.41 0.39 0.36 0.32 0.30 0.30 0.31 0.30 0.30 0.29 0.29 0.28 0.29 0.29 0.30 0.30 0.31 0.33 0.35 0.38 0.40 0.43 0.45 0.47 0.47 0.49 0.50 0.51 0.52 0.52 0.52 0.51 0.51 0.50 0.50 0.50 0.50 0.50 0.49 0.48 0.49
0.39 0.37 0.35 0.34 0.34 0.34 0.34 0.35 0.36 0.37 0.39 0.42 0.44 0.44 0.44 0.45 0.45 0.45 0.43 0.41 0.39 0.38 0.36 0.36 0.36 0.37 0.38 0.38 0.39 0.39 0.39 0.40 0.41 0.42 0.43 0.42 0.43 0.44 0.42 0.41 0.40 0.41 0.41 0.41 0.38 0.33 0.30 0.30 0.31 0.31 0.30 0.29 0.29 0.29 0.29 0.29 0.30 0.30 0.31 0.31 0.32 0.34 0.36 0.39 0.43 0.46 0.47 0.48 0.49 0.50 0.51 0.51 0.52 0.52 0.51 0.50 0.50 0.51 0.51 0.51 0.50 0.50 0.49 0.49 0.49
0.43 0.41 0.39 0.39 0.37 0.36 0.34 0.34 0.34 0.36 0.38 0.39 0.41 0.42 0.42 0.43 0.44 0.44 0.42 0.40 0.39 0.37 0.35 0.35 0.36 0.35 0.34 0.35 0.38 0.38 0.41 0.43 0.44 0.44 0.43 0.43 0.43 0.43 0.42 0.42 0.43 0.43 0.42 0.37 0.31 0.30 0.30 0.31 0.31 0.30 0.30 0.29 0.29 0.30 0.30 0.31 0.31 0.31 0.30 0.31 0.32 0.34 0.37 0.41 0.45 0.48 0.49 0.49 0.50 0.51 0.51 0.52 0.53 0.52 0.52 0.50 0.50 0.51 0.51 0.51 0.50 0.50 0.50 0.50 0.49
0.47 0.46 0.45 0.43 0.41 0.39 0.37 0.34 0.34 0.35 0.37 0.40 0.40 0.40 0.42 0.43 0.42 0.42 0.42 0.40 0.38 0.37 0.37 0.36 0.36 0.36 0.37 0.38 0.38 0.42 0.43 0.42 0.42 0.41 0.42 0.43 0.44 0.43 0.43 0.44 0.44 0.41 0.34 0.30 0.30 0.31 0.31 0.31 0.30 0.30 0.30 0.29 0.30 0.31 0.31 0.31 0.31 0.30 0.30 0.30 0.31 0.34 0.38 0.43 0.46 0.49 0.50 0.50 0.50 0.52 0.52 0.52 0.53 0.53 0.52 0.51 0.51 0.52 0.52 0.51 0.51 0.50 0.49 0.49 0.49
0.55 0.52 0.50 0.48 0.45 0.42 0.40 0.37 0.35 0.35 0.36 0.39 0.41 0.42 0.42 0.42 0.42 0.42 0.41 0.39 0.37 0.37 0.37 0.36 0.37 0.37 0.38 0.39 0.40 0.43 0.44 0.43 0.42 0.43 0.43 0.43 0.43 0.44 0.44 0.42 0.36 0.30 0.29 0.29 0.31 0.32 0.31 0.30 0.30 0.29 0.29 0.30 0.31 0.31 0.32 0.31 0.30 0.30 0.30 0.29 0.30 0.33 0.39 0.44 0.47 0.49 0.50 0.51 0.51 0.52 0.52 0.52 0.52 0.53 0.53 0.53 0.53 0.53 0.52 0.51 0.51 0.51 0.51 0.51 0.51
0.58 0.58 0.57 0.54 0.52 0.49 0.45 0.41 0.38 0.36 0.36 0.38 0.40 0.41 0.40 0.40 0.44 0.43 0.40 0.38 0.37 0.37 0.38 0.39 0.38 0.39 0.41 0.42 0.45 0.47 0.46 0.45 0.44 0.44 0.42 0.41 0.42 0.42 0.38 0.34 0.31 0.29 0.29 0.31 0.32 0.32 0.31 0.30 0.29 0.29 0.30 0.31 0.32 0.32 0.31 0.31 0.30 0.29 0.28 0.28 0.29 0.34 0.40 0.45 0.48 0.49 0.50 0.51 0.51 0.51 0.52 0.53 0.53 0.53 0.52 0.53 0.54 0.54 0.53 0.53 0.53 0.52 0.52 0.52 0.53
0.57 0.56 0.56 0.56 0.55 0.53 0.49 0.44 0.42 0.41 0.39 0.38 0.37 0.37 0.39 0.40 0.40 0.41 0.37 0.35 0.38 0.40 0.40 0.40 0.40 0.42 0.45 0.47 0.48 0.48 0.47 0.45 0.43 0.42 0.41 0.41 0.41 0.37 0.35 0.34 0.31 0.30 0.31 0.31 0.31 0.31 0.30 0.30 0.30 0.30 0.30 0.31 0.31 0.31 0.31 0.30 0.29 0.28 0.26 0.26 0.28 0.33 0.39 0.44 0.47 0.49 0.50 0.51 0.51 0.52 0.52 0.53 0.53 0.53 0.54 0.54 0.54 0.54 0.53 0.53 0.53 0.52 0.52 0.52 0.53
0.54 0.55 0.55 0.55 0.54 0.54 0.51 0.48 0.47 0.45 0.42 0.39 0.37 0.39 0.40 0.39 0.37 0.39 0.39 0.42 0.43 0.41 0.40 0.42 0.45 0.47 0.48 0.49 0.47 0.46 0.45 0.44 0.43 0.41 0.41 0.40 0.37 0.36 0.35 0.33 0.31 0.30 0.32 0.32 0.32 0.31 0.31 0.31 0.30 0.30 0.31 0.32 0.32 0.31 0.30 0.29 0.28 0.26 0.25 0.25 0.28 0.33 0.38 0.43 0.47 0.49 0.50 0.50 0.51 0.52 0.53 0.53 0.53 0.54 0.54 0.54 0.54 0.54 0.53 0.53 0.52 0.52 0.52 0.53 0.53
0.51 0.51 0.51 0.53 0.54 0.54 0.52 0.50 0.47 0.46 0.44 0.41 0.41 0.43 0.41 0.37 0.37 0.38 0.42 0.42 0.40 0.40 0.44 0.47 0.48 0.47 0.46 0.46 0.46 0.45 0.45 0.43 0.41 0.40 0.38 0.36 0.36 0.36 0.34 0.32 0.31 0.30 0.31 0.32 0.32 0.32 0.32 0.32 0.31 0.31 0.32 0.33 0.32 0.31 0.31 0.30 0.28 0.25 0.23 0.24 0.28 0.33 0.38 0.42 0.45 0.47 0.49 0.50 0.51 0.52 0.52 0.53 0.53 0.54 0.53 0.54 0.54 0.53 0.53 0.52 0.52 0.52 0.53 0.54 0.54
0.50 0.49 0.48 0.47 0.47 0.47 0.46 0.47 0.47 0.48 0.48 0.47 0.47 0.47 0.45 0.42 0.41 0.41 0.40 0.39 0.40 0.45 0.48 0.48 0.47 0.45 0.45 0.46 0.46 0.45 0.42 0.40 0.39 0.37 0.35 0.35 0.36 0.35 0.34 0.33 0.31 0.30 0.30 0.30 0.32 0.33 0.32 0.32 0.31 0.31 0.32 0.32 0.31 0.31 0.30 0.30 0.28 0.25 0.24 0.25 0.28 0.32 0.37 0.40 0.44 0.48 0.50 0.50 0.51 0.51 0.52 0.52 0.52 0.53 0.53 0.53 0.53 0.53 0.52 0.52 0.52 0.53 0.53 0.53 0.53
0.52 0.50 0.49 0.48 0.48 0.48 0.48 0.49 0.49 0.47 0.44 0.44 0.44 0.44 0.43 0.43 0.42 0.41 0.42 0.45 0.48 0.48 0.47 0.46 0.45 0.46 0.46 0.46 0.46 0.43 0.41 0.39 0.36 0.35 0.34 0.35 0.35 0.34 0.34 0.33 0.31 0.30 0.29 0.31 0.32 0.33 0.32 0.32 0.32 0.32 0.32 0.30 0.30 0.30 0.30 0.29 0.27 0.25 0.24 0.26 0.30 0.33 0.37 0.40 0.44 0.46 0.48 0.50 0.50 0.51 0.51 0.52 0.52 0.53 0.53 0.53 0.53 0.53 0.52 0.52 0.53 0.53 0.53 0.53 0.53
0.55 0.54 0.52 0.50 0.49 0.48 0.49 0.50 0.49 0.49 0.49 0.49 0.49 0.48 0.47 0.46 0.47 0.48 0.49 0.49 0.48 0.47 0.47 0.47 0.47 0.47 0.47 0.46 0.43 0.41 0.38 0.35 0.34 0.33 0.33 0.34 0.35 0.34 0.34 0.33 0.32 0.30 0.29 0.31 0.32 0.33 0.32 0.32 0.33 0.33 0.31 0.30 0.29 0.28 0.28 0.28 0.26 0.25 0.24 0.26 0.30 0.33 0.36 0.39 0.41 0.43 0.46 0.49 0.50 0.50 0.51 0.51 0.51 0.52 0.53 0.54 0.53 0.52 0.51 0.51 0.51 0.52 0.53 0.53 0.53
0.54 0.54 0.54 0.54 0.53 0.53 0.52 0.53 0.52 0.52 0.52 0.51 0.51 0.50 0.50 0.49 0.48 0.47 0.46 0.46 0.47 0.48 0.48 0.49 0.48 0.47 0.44 0.41 0.39 0.36 0.34 0.33 0.32 0.32 0.32 0.35 0.35 0.35 0.34 0.33 0.31 0.30 0.29 0.31 0.32 0.32 0.32 0.33 0.33 0.32 0.30 0.28 0.28 0.27 0.26 0.27 0.26 0.25 0.24 0.25 0.29 0.32 0.35 0.36 0.38 0.41 0.44 0.46 0.48 0.49 0.49 0.50 0.51 0.51 0.52 0.53 0.53 0.53 0.51 0.51 0.51 0.52 0.53 0.53 0.54
0.50 0.50 0.50 0.50 0.50 0.50 0.50 0.50 0.50 0.49 0.49 0.49 0.49 0.48 0.48 0.48 0.48 0.48 0.48 0.48 0.49 0.49 0.48 0.46 0.43 0.41 0.38 0.35 0.34 0.32 0.32 0.31 0.30 0.31 0.32 0.35 0.35 0.35 0.35 0.33 0.31 0.29 0.29 0.31 0.31 0.31 0.32 0.32 0.32 0.31 0.29 0.27 0.27 0.25 0.24 0.25 0.25 0.25 0.24 0.25 0.28 0.31 0.33 0.35 0.36 0.38 0.41 0.43 0.45 0.47 0.48 0.49 0.49 0.50 0.51 0.52 0.52 0.53 0.53 0.52 0.53 0.52 0.53 0.53 0.54
0.50 0.49 0.49 0.48 0.48 0.48 0.49 0.49 0.49 0.49 0.49 0.49 0.48 0.48 0.48 0.48 0.47 0.47 0.47 0.46 0.46 0.44 0.42 0.39 0.37 0.35 0.33 0.32 0.31 0.30 0.30 0.30 0.30 0.30 0.32 0.34 0.35 0.35 0.35 0.34 0.31 0.28 0.29 0.29 0.30 0.30 0.31 0.31 0.31 0.29 0.27 0.26 0.26 0.24 0.23 0.24 0.24 0.24 0.24 0.24 0.27 0.30 0.32 0.33 0.34 0.36 0.38 0.39 0.41 0.44 0.45 0.46 0.47 0.48 0.49 0.50 0.51 0.52 0.52 0.52 0.53 0.53 0.53 0.52 0.53
0.48 0.48 0.48 0.48 0.48 0.48 0.48 0.47 0.47 0.47 0.48 0.48 0.47 0.46 0.46 0.45 0.44 0.44 0.42 0.41 0.39 0.37 0.35 0.34 0.33 0.32 0.31 0.31 0.30 0.30 0.30 0.30 0.30 0.30 0.32 0.34 0.34 0.34 0.34 0.33 0.31 0.30 0.29 0.29 0.29 0.30 0.30 0.30 0.29 0.27 0.26 0.26 0.25 0.24 0.23 0.24 0.24 0.24 0.23 0.23 0.25 0.29 0.31 0.32 0.32 0.33 0.36 0.38 0.39 0.40 0.42 0.43 0.44 0.45 0.46 0.47 0.49 0.50 0.50 0.51 0.52 0.52 0.52 0.53 0.53
Wind_Speed
18 18 17 16 17 17 16 16 17 18 18 17 17 15 14 14 14 13 12 12 11 11 10 10 9 9 9 8 8 8 7 7 7 7 6 6 6 7 7 7 7 8 8 8 8 7 7 7 7 8 7 7 7 7 7 7 7 6 7 7 7 7 7 7 8 9 10 10 11 11 12 12 12 12 13 13 13 13 13 13 13 13 12 13 13
17 18 18 18 18 19 18 17 18 19 19 19 19 18 16 16 16 15 15 14 13 12 12 11 10 10 10 9 9 9 9 9 9 8 8 8 8 8 8 8 9 9 9 9 9 9 9 9 9 9 9 9 9 8 8 8 8 8 8 8 8 8 9 9 10 11 11 12 12 12 13 13 13 14 14 14 14 15 15 15 14 14 14 14 14
17 17 18 19 19 20 19 19 19 19 19 20 20 19 18 17 17 17 17 16 15 14 13 12 12 11 11 10 10 10 10 10 10 10 9 10 10 10 10 10 10 11 11 11 11 11 11 11 11 11 11 11 10 10 10 10 10 10 10 10 10 10 11 11 11 12 13 14 14 14 14 14 14 14 15 15 16 16 16 16 16 16 16 16 16
17 17 18 18 19 19 19 19 19 20 20 20 21 20 19 19 19 19 19 18 17 16 15 15 14 13 12 12 12 12 12 12 12 11 11 11 12 12 12 13 13 13 13 13 13 13 13 13 13 13 13 13 13 12 12 12 12 12 12 12 12 12 13 13 13 14 15 15 16 16 16 16 16 15 16 16 16 17 17 18 18 18 18 19 19
18 18 18 18 19 19 19 19 19 20 21 21 21 21 21 20 20 20 20 20 20 18 17 17 17 15 15 15 14 14 14 14 14 14 13 13 14 14 14 15 15 16 16 16 15 15 15 15 15 15 15 15 15 15 14 14 14 14 14 14 14 15 15 15 15 15 16 17 17 17 17 17 17 17 17 17 17 18 18 18 19 19 20 21 21
19 19 18 18 18 19 20 20 19 20 21 21 20 20 21 21 20 21 22 22 21 20 19 19 19 18 17 17 16 16 16 16 16 16 16 15 16 16 17 17 17 17 17 17 17 17 17 17 17 16 17 16 16 16 16 16 16 16 16 16 17 17 17 17 17 17 17 18 19 19 19 19 19 19 18 19 19 19 19 20 20 20 21 22 22
18 18 18 18 18 19 20 20 19 19 19 19 19 19 20 22 22 22 23 23 23 22 21 20 20 20 19 18 18 17 17 17 17 17 18 18 18 19 19 19 19 19 18 18 18 18 18 18 18 18 18 18 18 18 18 18 18 18 18 18 18 18 18 18 19 19 19 19 19 20 20 20 20 20 21 21 20 20 21 21 22 22 22 23 23
16 17 17 18 18 19 19 19 18 18 18 17 17 18 18 20 21 21 22 23 24 24 23 21 21 21 20 19 19 19 19 19 19 19 19 19 19 20 20 20 20 20 20 20 20 20 20 20 20 20 20 20 20 20 20 19 19 19 19 19 19 19 20 20 20 20 20 20 20 21 21 22 22 22 23 23 22 22 22 23 23 24 24 25 25
17 17 18 18 18 18 17 18 19 18 17 17 17 18 18 18 20 21 22 22 22 24 24 22 21 21 20 18 18 18 18 20 20 20 20 20 21 21 20 20 21 21 22 23 23 23 22 22 23 23 23 23 23 22 22 22 21 22 22 22 22 22 22 22 22 22 22 22 22 23 23 23 23 23 24 24 24 24 25 25 25 26 27 27 27
17 18 18 17 17 17 17 18 20 19 18 18 18 18 19 19 20 21 22 22 21 22 22 21 21 21 21 20 19 18 19 19 20 21 21 21 21 21 20 21 22 22 23 24 25 26 26 26 26 26 26 26 25 25 25 24 24 24 24 24 24 24 25 25 25 24 24 24 25 25 25 26 26 26 26 26 26 27 27 27 28 28 29 29 29
19 19 19 19 19 19 19 20 21 21 21 21 21 20 20 20 20 20 21 22 21 21 21 22 22 22 21 21 20 20 20 20 21 21 21 21 21 21 22 23 23 24 24 25 26 27 28 28 29 29 29 28 28 28 27 27 27 27 27 27 27 27 27 27 27 27 27 27 28 28 28 28 29 29 29 29 29 29 29 29 30 30 30 30 30
21 21 21 21 20 20 20 21 23 23 22 22 22 21 21 22 21 21 22 21 22 22 22 23 23 23 23 22 22 21 21 21 21 21 22 22 23 23 24 25 25 26 26 27 27 27 28 29 30 30 30 30 30 29 28 28 28 29 29 29 29 28 29 29 29 29 29 30 30 30 31 31 31 31 31 32 32 32 32 32 32 32 32 33 33
21 22 22 22 22 21 21 22 23 23 23 23 22 21 22 22 22 22 23 23 23 23 23 23 23 23 23 23 22 21 21 21 22 22 23 24 25 26 27 27 28 28 29 29 29 29 29 30 30 30 30 30 30 30 30 30 30 30 30 30 30 30 30 30 31 31 31 32 32 32 33 33 33 33 33 34 34 34 35 35 35 35 35 36 36
22 22 23 24 24 24 24 23 23 23 22 22 22 22 22 23 23 23 23 24 24 24 24 23 23 22 22 22 22 22 23 24 25 25 26 26 27 27 28 28 29 30 30 30 30 30 30 30 30 30 30 31 31 32 32 31 31 31 31 31 31 31 32 32 33 33 34 34 34 35 35 34 34 35 35 36 36 36 37 37 37 38 38 38 39
24 24 23 24 24 25 25 24 24 23 22 22 21 22 22 22 22 22 22 22 23 23 23 23 23 22 22 23 23 24 25 26 26 26 26 26 27 27 27 28 28 28 29 29 29 29 29 29 30 30 31 31 32 32 31 31 30 31 32 32 32 33 33 34 35 35 36 36 36 36 36 36 36 36 37 37 38 38 39 39 40 40 40 40 40
25 25 24 24 23 23 23 23 22 22 22 21 21 21 21 21 21 21 20 20 21 21 21 22 22 23 24 24 24 25 25 26 26 26 26 26 26 26 26 27 27 28 28 28 28 28 28 29 29 30 31 31 32 32 31 31 31 32 33 34 35 35 36 36 37 37 37 37 37 37 38 38 38 38 39 39 40 40 41 41 41 42 41 41 40
25 25 25 24 24 24 23 23 22 22 22 22 22 22 21 21 21 21 21 21 21 22 22 23 24 24 25 25 25 25 26 26 26 26 26 26 26 26 26 26 27 27 27 28 28 28 28 28 29 29 30 31 31 31 32 32 33 34 34 35 36 37 37 38 38 38 38 38 38 39 39 39 39 40 40 40 41 41 41 42 42 41 41 41 41
24 25 25 25 25 25 25 25 24 24 24 23 24 24 23 23 23 23 23 23 23 23 24 24 24 25 25 25 26 26 26 27 27 27 27 27 27 27 27 27 27 27 27 27 28 28 28 28 28 29 29 30 31 31 32 33 34 34 35 36 36 37 38 38 38 38 39 39 39 40 40 40 40 40 41 41 42 42 41 42 41 41 41 41 41
25 25 25 25 25 26 27 27 27 26 26 26 25 25 25 25 25 25 24 24 24 24 24 24 24 25 25 25 26 26 26 27 27 27 27 27 28 28 28 28 28 28 28 28 28 28 28 28 28 29 30 30 30 31 31 32 33 34 35 36 36 37 38 38 39 39 39 40 40 40 41 41 41 41 42 42 42 42 42 42 42 42 42 42 42
27 27 26 26 26 26 27 28 29 28 28 27 27 26 26 26 26 26 25 25 25 25 25 25 25 25 26 26 26 27 27 28 28 29 29 29 29 29 29 29 28 28 28 28 28 29 29 29 29 29 29 30 30 31 31 32 33 34 35 36 36 37 38 38 39 39 39 40 40 40 41 41 41 41 42 42 43 43 43 42 42 42 42 43 42
30 29 29 28 28 27 27 28 29 29 29 28 28 27 27 27 26 26 26 26 26 25 25 25 25 26 27 27 28 29 29 29 30 30 30 30 30 30 29 29 29 29 29 29 29 29 29 29 29 29 29 29 30 30 31 32 33 34 35 35 36 37 37 38 38 39 39 40 40 40 41 41 41 42 42 42 43 43 43 43 42 42 42 43 43
32 32 32 31 31 30 29 29 29 30 30 29 29 28 28 27 27 27 27 27 26 26 27 27 27 28 29 29 30 30 31 31 31 31 30 30 30 30 30 30 29 29 29 29 28 28 28 29 29 29 29 30 30 31 31 32 33 34 34 35 36 36 37 38 38 39 39 40 40 41 41 41 42 42 43 43 43 43 43 43 43 43 43 43 43
35 35 35 35 34 34 33 32 31 31 31 31 30 30 29 29 28 28 28 28 28 28 29 29 29 30 30 31 32 32 32 31 31 31 31 31 30 30 30 30 29 29 29 28 28 28 28 29 29 30 30 31 31 32 32 33 33 34 34 35 36 36 37 37 38 38 39 40 40 41 41 42 42 43 43 43 43 43 43 43 43 43 43 43 44
37 37 38 38 38 37 36 35 35 34 33 32 32 31 30 30 30 29 29 29 29 30 30 30 31 31 32 33 33 33 32 32 32 32 31 31 31 30 30 29 29 29 29 29 29 29 29 29 30 30 31 31 32 32 32 33 33 33 33 34 35 35 36 36 37 37 38 39 40 40 40 41 41 41 41 41 42 42 42 42 42 42 43 43 43
39 38 39 39 40 39 39 39 38 38 37 36 35 34 33 32 32 32 32 32 32 32 33 33 33 33 33 34 33 33 33 33 33 32 32 31 31 30 29 29 29 29 29 29 29 29 29 30 30 31 31 31 31 31 31 31 31 31 31 32 33 33 34 35 35 36 37 37 38 38 38 38 39 39 40 40 40 41 41 41 42 42 42 43 43
42 41 41 41 41 42 41 41 41 41 41 41 40 39 38 37 37 36 36 35 35 35 35 35 35 35 35 34 34 33 33 33 33 32 32 32 31 30 29 29 29 29 29 29 29 29 29 30 30 30 30 30 30 29 29 29 29 29 30 30 31 32 32 33 33 34 34 35 35 36 36 37 37 38 39 39 40 40 40 41 42 42 42 43 43
44 44 43 43 44 44 44 44 43 43 43 43 43 42 41 40 40 39 38 37 37 37 36 36 36 36 35 34 33 33 33 33 33 32 32 32 31 31 30 29 29 29 29 29 28 29 29 29 29 28 28 28 28 28 28 28 28 28 29 29 30 30 30 31 31 32 32 33 34 35 35 36 37 38 39 39 40 40 40 41 42 42 42 43 43
47 46 45 45 44 44 45 45 45 45 44 44 43 43 42 41 40 40 40 39 38 38 37 37 37 36 35 34 33 33 33 33 33 33 32 32 31 30 29 29 28 28 28 28 27 27 27 27 27 27 27 27 27 26 26 26 27 27 28 28 29 29 29 30 30 31 32 33 34 35 36 37 37 38 38 39 39 40 40 40 41 42 42 42 43
48 48 47 46 45 44 44 44 44 44 44 43 43 42 42 41 41 40 40 39 39 38 38 38 37 36 35 34 33 33 33 33 33 32 31 31 30 29 29 28 28 27 27 26 26 26 26 26 26 26 25 25 24 24 25 25 26 26 27 27 28 28 29 29 30 31 32 34 35 36 36 37 37 38 38 39 39 40 40 41 41 41 41 42 42
46 47 47 46 46 45 44 43 43 42 43 42 42 42 41 41 40 40 40 39 38 38 37 36 36 35 34 34 33 33 33 32 31 30 29 28 28 27 27 27 26 26 25 25 25 25 25 24 24 23 23 22 23 23 23 24 25 25 26 26 27 27 28 29 31 32 33 34 35 35 36 37 37 38 39 39 40 40 40 40 40 40 39 39 39
44 45 45 45 45 45 44 44 42 41 41 42 42 42 42 41 40 40 39 38 37 36 34 34 33 33 33 32 32 32 31 30 29 28 27 26 26 26 26 25 25 25 24 24 23 23 22 21 21 21 21 21 21 22 22 23 23 24 24 25 26 27 28 30 31 32 33 34 34 35 36 36 37 38 38 38 38 38 37 36 36 35 35 35 35
43 43 44 44 44 43 43 43 43 42 41 40 40 40 39 38 37 37 37 36 35 33 32 32 32 32 31 31 31 31 29 28 27 26 25 24 24 24 24 24 23 23 23 22 21 20 20 19 19 19 20 20 20 20 20 21 21 22 23 24 26 27 28 30 31 32 33 34 34 35 35 35 36 35 35 34 33 32 31 31 30 30 29 29 29
43 43 43 43 43 43 42 42 42 42 42 41 40 39 37 36 35 34 32 31 30 30 30 30 30 30 30 30 29 29 28 26 25 24 24 23 23 23 22 22 21 20 20 20 19 18 18 18 18 18 18 18 18 18 18 19 20 21 22 24 25 27 28 30 31 32 33 33 33 34 34 33 32 31 30 29 28 26 26 25 25 24 24 24 24
43 43 43 43 43 43 43 42 42 41 41 41 40 39 38 37 36 34 31 30 29 28 28 28 28 28 28 28 27 26 25 24 23 22 22 22 21 21 20 19 18 18 18 18 18 17 17 17 16 16 16 15 15 16 16 17 18 20 21 23 25 27 28 30 31 32 32 32 32 31 30 29 28 26 25 23 22 21 21 21 21 21 22 22 23
42 42 43 43 42 42 42 42 41 41 40 40 40 39 38 37 36 35 33 32 31 29 29 28 28 28 27 26 25 24 23 22 21 21 21 20 20 19 18 17 17 17 17 17 16 16 15 15 14 14 13 13 14 14 15 16 17 19 21 23 25 27 28 30 30 31 30 29 28 27 26 24 23 21 20 19 19 19 19 20 20 21 21 22 22
38 39 40 41 41 41 41 41 41 41 41 40 39 39 38 37 36 34 33 32 31 30 28 28 27 26 25 24 23 22 21 21 20 20 19 19 18 18 17 17 17 16 16 15 14 13 13 12 12 11 12 12 12 12 13 15 16 19 21 23 25 27 28 29 29 29 27 26 24 23 22 21 19 18 17 17 18 18 19 19 20 20 21 22 23
34 35 36 37 38 39 40 40 40 40 41 40 40 38 37 36 35 34 32 31 30 28 27 26 25 24 23 23 22 21 20 19 18 18 18 17 17 17 16 16 15 15 14 13 12 11 11 10 10 10 10 10 10 11 12 14 16 19 21 23 25 26 27 28 27 26 24 22 21 20 19 18 17 16 17 17 18 18 18 19 20 21 22 22 23
28 30 31 32 33 35 36 37 38 38 38 38 38 38 37 35 34 32 31 29 28 27 26 25 24 23 22 22 21 20 19 18 17 17 17 16 16 16 15 15 14 13 12 11 10 10 9 9 9 8 8 8 8 10 12 14 16 18 21 23 25 26 27 26 25 23 22 21 19 18 17 16 16 16 16 17 18 18 18 19 20 21 21 21 21
23 25 26 27 28 29 31 32 33 34 34 34 35 35 35 34 32 30 29 27 26 25 24 23 22 22 22 21 20 20 19 18 17 16 16 15 15 14 14 13 12 11 11 10 10 9 8 8 7 6 6 6 8 10 12 14 16 18 21 23 24 26 26 25 23 22 21 19 18 16 15 15 15 16 16 16 17 18 18 19 20 20 20 20 20
18 19 21 22 23 23 25 26 28 29 30 31 31 31 31 31 30 29 27 26 25 24 23 22 21 21 21 20 20 20 19 17 16 15 15 14 14 13 12 11 11 10 10 9 9 8 7 7 6 5 5 6 8 10 12 14 16 18 21 23 24 25 25 24 21 20 19 18 16 15 14 14 15 15 16 16 17 18 18 19 19 19 19 20 20
13 15 17 18 19 19 20 21 23 24 26 28 28 28 28 28 28 26 25 24 23 22 22 21 20 20 20 19 19 19 18 17 15 15 14 13 13 12 11 11 10 9 9 9 8 7 7 6 5 5 5 6 8 10 12 14 16 19 21 22 23 25 25 23 21 19 18 17 15 15 14 15 15 15 16 17 17 18 18 18 19 19 19 19 18
7 10 13 15 17 17 17 17 18 20 22 24 25 25 25 25 25 25 23 22 22 21 20 19 19 18 18 18 18 17 16 15 15 14 13 12 12 11 11 10 10 9 9 8 8 7 6 6 5 5 5 7 9 11 12 14 16 19 20 22 23 24 24 23 21 19 18 17 15 15 15 15 15 16 16 17 17 18 18 18 18 18 18 18 17
4 2 5 10 13 15 15 15 15 16 17 19 21 22 23 23 23 23 22 21 20 20 20 19 19 18 17 17 16 15 15 14 14 14 13 12 11 11 10 10 9 9 9 8 7 7 6 5 5 5 5 7 9 11 13 14 16 18 20 21 23 23 23 23 22 19 18 17 16 15 15 15 15 16 16 17 17 17 17 17 17 17 17 17 16
12 11 9 9 11 12 12 13 13 14 14 16 18 20 20 20 21 21 21 20 20 20 20 19 18 17 16 16 15 14 14 14 13 13 12 12 11 11 10 10 9 9 8 8 7 6 6 5 5 5 6 8 9 11 13 15 16 18 19 21 22 23 23 23 22 21 19 17 16 16 16 16 16 16 16 16 17 17 17 16 15 16 16 16 16
15 15 14 13 13 12 12 13 13 13 13 15 16 18 18 19 19 20 20 19 19 19 19 18 17 16 16 15 14 14 13 13 13 13 12 12 11 11 11 10 9 9 8 7 7 6 5 5 5 5 6 8 9 11 13 15 16 18 19 20 21 22 22 22 23 22 20 18 17 17 17 16 16 15 16 16 16 16 15 14 14 15 15 15 15
15 15 15 15 15 14 14 14 14 14 14 15 16 17 17 18 18 18 19 19 19 18 18 17 16 16 15 14 13 13 13 13 13 13 12 12 12 11 11 10 9 8 8 7 6 6 5 5 5 6 6 8 9 11 13 15 16 17 18 20 21 22 22 23 23 22 21 19 17 17 17 16 15 15 15 15 15 15 14 13 13 14 14 14 14
16 15 15 15 15 15 15 15 15 15 15 16 16 17 17 18 18 18 18 18 18 17 16 16 15 14 13 13 13 13 14 14 13 13 13 12 12 11 10 9 9 8 7 7 6 5 5 5 5 6 6 7 9 11 13 14 16 17 18 19 20 21 22 23 23 23 22 20 19 18 17 16 16 15 15 15 15 14 13 13 13 13 13 13 13
19 18 17 17 17 16 16 16 16 16 16 16 17 17 17 17 17 17 17 16 16 15 15 14 13 13 13 13 13 13 14 14 13 13 12 11 10 10 9 9 8 8 7 6 5 5 5 5 5 6 6 7 9 11 12 14 16 17 17 18 20 21 22 23 23 23 22 21 20 19 17 17 16 16 15 15 14 14 13 12 12 12 12 11 11
18 18 18 18 17 17 17 17 17 17 16 16 16 16 16 16 15 15 15 14 14 14 13 13 12 12 13 13 13 13 14 13 13 12 11 10 9 9 9 8 8 7 6 6 6 6 5 5 5 6 6 7 9 11 12 13 15 16 17 18 19 21 22 22 23 23 23 23 21 20 18 17 16 16 16 15 14 14 13 12 11 11 11 10 10
16 16 16 16 16 16 16 16 16 15 15 14 14 14 14 14 14 13 13 13 13 13 13 12 12 12 13 13 13 13 13 12 11 10 9 8 8 9 9 8 7 7 7 6 6 6 6 5 6 6 7 8 9 10 12 13 14 16 17 18 19 20 21 22 23 23 24 23 22 21 20 18 17 16 16 15 14 14 13 12 12 11 11 10 9
13 13 14 13 13 13 13 13 13 13 12 12 12 12 12 12 12 12 12 12 12 12 12 12 12 12 12 12 12 12 11 11 10 9 8 8 8 9 8 8 7 7 7 7 6 6 6 6 7 7 7 8 9 10 11 13 14 15 17 18 18 19 20 21 22 23 23 23 23 22 21 20 18 17 16 15 15 14 13 13 12 11 10 10 9
Wind_Direction
241 240 238 238 237 232 230 236 236 232 233 233 230 231 235 237 237 237 235 233 232 232 234 236 237 238 238 239 241 241 242 245 249 254 258 264 270 271 270 270 270 269 268 268 268 268 267 266 266 267 269 272 274 277 278 279 279 281 285 287 289 292 293 294 294 294 296 296 296 297 298 298 298 297 295 294 295 295 295 294 293 290 289 287 286
243 242 241 241 237 233 237 243 240 237 238 236 233 233 237 239 239 238 238 237 237 237 237 237 239 241 242 243 243 243 245 247 249 253 257 262 267 269 268 268 269 269 268 267 267 267 267 266 266 267 267 268 272 274 275 276 277 279 281 284 286 289 291 292 293 293 295 298 298 299 300 299 298 298 296 294 293 293 292 292 292 290 289 288 286
245 244 244 244 240 237 241 244 242 240 239 236 233 234 237 239 238 238 237 237 238 239 238 239 240 240 241 243 244 244 247 249 250 254 260 265 268 267 267 267 269 270 269 269 268 268 268 268 268 269 268 268 269 272 274 275 276 278 280 282 284 287 289 290 291 290 291 294 296 297 298 298 297 297 296 295 294 292 291 290 290 289 288 287 286
250 247 246 245 241 238 240 242 241 239 238 236 234 233 235 236 237 237 236 236 237 237 239 239 238 238 240 244 247 249 252 254 256 260 265 268 268 268 269 271 271 270 270 270 270 269 269 269 269 270 269 268 269 271 273 274 275 276 278 280 282 285 287 289 290 290 290 291 293 294 296 296 295 295 296 295 293 291 290 290 289 288 287 286 285
254 252 251 247 242 241 244 244 242 239 237 237 237 235 236 237 238 238 237 237 237 238 238 238 237 239 243 246 249 251 254 257 260 264 267 269 270 269 270 272 272 270 270 270 269 268 269 269 269 270 270 270 270 271 271 272 273 275 276 279 281 284 286 287 289 289 290 290 290 291 293 294 293 294 295 295 293 292 291 290 289 289 288 287 286
256 256 254 250 246 245 247 247 245 240 236 236 237 238 239 239 239 239 238 238 238 238 239 240 240 242 245 248 251 254 257 260 263 265 267 269 271 272 271 272 271 269 269 268 267 267 268 269 269 270 271 271 271 271 271 271 272 274 276 278 280 283 284 286 288 289 290 290 289 290 291 292 293 293 295 295 294 293 293 291 290 290 289 287 286
257 256 255 251 248 248 249 247 243 236 232 234 238 242 244 243 242 243 241 239 238 238 239 243 243 243 247 250 253 256 260 263 265 267 268 269 272 274 272 270 269 267 266 266 266 267 268 269 270 270 271 272 272 271 271 272 273 274 276 277 279 282 284 286 287 288 289 289 289 290 290 291 292 292 293 294 293 293 294 294 292 291 290 289 288
256 255 254 252 251 251 248 244 238 233 232 237 241 245 248 245 243 244 242 241 241 239 240 246 245 244 249 253 255 259 261 263 266 269 270 271 273 274 272 270 269 267 265 265 266 267 268 269 270 270 271 272 272 273 273 274 275 275 275 276 278 281 284 286 287 287 287 287 287 288 289 290 291 291 292 293 293 293 294 294 293 292 291 289 288
258 256 255 253 252 249 246 241 237 235 236 240 243 247 250 247 246 246 244 244 244 240 241 246 243 242 249 255 257 261 262 264 267 270 271 273 274 275 274 272 271 270 268 266 265 265 266 268 269 270 271 271 271 272 273 273 275 275 275 276 277 280 282 284 285 285 285 285 285 285 286 287 289 290 291 292 292 292 292 292 292 291 291 289 287
261 259 255 252 249 247 246 240 236 237 241 245 249 252 251 250 249 247 244 244 244 241 242 244 242 243 251 255 257 261 263 265 268 270 272 274 274 274 275 275 274 273 272 269 267 265 265 266 269 269 269 269 269 270 271 272 273 274 275 276 277 278 280 281 281 282 283 284 283 283 284 284 286 288 289 290 290 290 290 290 290 290 290 290 288
262 259 256 254 251 249 248 243 241 246 250 251 253 254 252 252 251 248 244 244 243 243 244 245 245 248 252 255 259 263 265 267 269 271 273 274 274 275 275 275 275 274 274 272 270 268 267 267 268 268 268 268 268 269 269 271 272 273 274 275 276 277 279 280 279 279 280 281 282 282 282 283 284 286 287 288 289 289 289 289 289 289 289 289 287
263 260 258 257 255 251 248 245 246 249 251 251 253 253 252 253 252 248 245 244 244 245 247 247 248 251 253 257 262 265 267 269 271 272 273 273 274 276 276 276 276 275 274 273 272 271 269 268 268 268 268 267 267 268 268 270 272 273 274 274 275 276 278 278 278 279 279 280 281 281 281 282 283 284 285 286 287 288 288 288 288 288 288 287 286
264 261 259 257 255 252 250 249 248 249 250 251 252 251 251 252 251 249 248 247 247 247 248 248 250 253 255 258 263 265 267 269 271 273 274 275 277 277 277 277 276 276 275 274 274 273 272 271 270 269 268 267 267 267 268 269 271 272 273 274 275 277 278 278 279 279 279 280 281 282 282 282 283 284 284 285 286 287 287 288 288 287 286 286 286
265 263 259 257 255 253 252 250 249 249 250 251 251 250 251 251 250 250 250 250 249 247 246 248 251 254 256 258 262 265 268 271 273 275 277 278 279 279 278 278 278 277 277 276 275 274 273 272 271 270 268 266 266 267 268 269 270 271 272 274 275 277 278 279 279 280 280 281 281 282 283 283 283 283 284 284 285 285 286 286 287 287 286 285 285
266 264 261 258 256 254 251 249 248 249 249 250 250 250 251 251 249 249 249 249 247 247 247 250 252 254 257 260 264 268 271 274 275 277 278 280 280 280 280 280 280 280 279 278 277 276 274 273 272 270 268 267 268 269 268 268 269 270 272 273 275 276 277 278 278 279 280 280 281 282 283 283 283 283 283 284 284 284 284 285 286 286 285 285 285
265 263 261 259 256 254 251 248 246 246 246 248 249 249 250 250 249 249 249 248 247 248 249 252 255 258 261 264 267 271 274 276 277 278 280 281 281 281 281 281 281 281 281 280 279 277 276 274 273 271 269 269 269 268 267 268 269 271 272 273 275 276 277 278 279 279 279 280 281 281 282 282 283 283 284 284 284 284 284 285 285 285 285 284 284
264 263 262 259 256 253 250 248 246 246 247 248 249 249 249 249 248 249 250 251 251 252 254 257 259 262 264 266 269 272 275 277 278 279 280 281 281 282 281 281 282 282 281 281 280 279 277 275 274 272 271 271 270 268 267 269 271 271 272 274 275 276 278 279 279 279 280 280 281 281 281 282 283 283 283 284 284 285 285 285 285 285 284 283 283
263 262 261 260 257 252 250 249 248 248 249 249 249 249 249 249 250 251 252 253 254 255 257 260 263 265 267 269 271 273 276 278 279 280 280 281 282 282 281 281 282 282 281 281 280 279 278 277 275 273 272 271 271 270 271 272 273 273 273 275 276 278 278 279 279 280 280 280 280 281 281 282 282 282 283 284 284 285 284 284 284 283 283 282 282
263 261 260 261 259 254 251 250 250 250 250 250 251 251 250 251 252 253 254 254 256 257 260 262 265 268 270 271 272 275 277 279 280 280 281 281 281 281 281 281 282 282 281 280 279 279 278 277 276 274 273 272 272 273 273 274 274 275 275 276 278 279 279 279 279 280 280 280 280 280 281 281 282 282 283 284 284 284 283 283 282 282 282 281 281
261 260 260 261 260 257 253 251 250 250 250 251 251 251 252 252 253 254 255 255 257 259 261 264 267 269 270 271 273 275 277 279 280 280 280 281 281 281 281 281 281 281 280 279 279 278 278 277 276 275 274 274 275 275 275 275 276 276 277 278 279 279 279 279 280 280 280 280 280 280 280 281 281 282 283 283 283 283 283 282 281 281 281 281 281
259 259 259 260 258 256 255 254 251 250 251 251 251 252 253 254 255 255 255 256 257 260 262 265 268 270 272 272 274 276 277 278 280 280 280 280 280 280 281 281 280 280 279 278 278 277 277 277 277 277 277 277 278 278 278 278 278 279 279 279 279 279 280 280 280 280 281 281 281 281 281 281 281 282 282 283 283 283 283 282 280 280 279 279 279
258 258 258 258 257 255 256 255 253 252 252 252 252 252 253 255 255 256 256 257 259 262 265 268 270 272 274 275 276 277 278 278 279 279 279 280 281 281 280 280 280 279 278 277 277 276 276 276 276 277 278 278 279 280 280 281 281 281 280 280 280 280 281 281 281 281 282 282 282 282 282 282 282 283 283 283 283 283 282 281 280 279 279 278 279
260 259 258 257 257 256 256 255 254 254 253 253 252 253 253 254 254 255 257 258 261 263 266 269 271 272 274 276 277 278 278 278 278 278 278 279 280 280 280 279 278 278 277 276 276 276 276 276 276 277 278 279 280 281 282 282 282 281 281 281 282 282 283 283 283 283 283 283 283 283 283 283 284 284 284 283 283 283 282 281 281 280 279 279 279
260 260 258 257 257 257 256 256 255 254 253 253 253 253 254 254 254 255 257 259 261 263 266 269 270 272 273 275 276 277 277 277 276 276 277 278 279 279 279 278 277 276 276 275 275 275 276 277 277 278 279 280 281 281 282 282 282 282 282 283 284 284 284 285 285 285 285 285 284 284 284 284 284 284 284 283 283 282 282 281 281 280 280 279 279
260 259 258 257 256 256 256 256 255 254 253 253 253 253 253 254 254 256 258 260 262 265 267 269 270 271 273 274 275 275 275 275 275 275 277 278 278 279 278 278 277 276 275 275 275 276 277 278 279 280 280 280 281 281 282 282 282 283 284 285 286 286 286 286 286 286 286 286 286 285 285 285 285 285 285 284 284 283 283 283 282 281 281 280 280
259 258 258 257 256 255 255 255 255 255 254 254 254 254 254 254 255 257 258 261 263 265 267 268 270 271 272 273 273 273 272 272 273 274 276 276 277 278 278 277 276 275 275 275 276 277 279 280 280 281 281 281 281 282 282 283 283 285 286 287 287 287 287 288 288 288 288 287 287 287 287 287 286 286 286 286 285 285 285 284 283 283 282 282 281
258 257 257 256 256 255 255 255 255 254 254 253 253 253 254 254 255 256 258 260 262 265 267 268 269 270 271 270 270 270 270 271 272 273 274 275 276 276 276 275 275 275 275 276 277 278 279 280 280 280 280 281 281 282 282 283 284 285 286 287 288 289 289 289 289 289 289 289 289 288 288 288 288 288 288 288 287 287 286 286 285 284 283 282 281
258 257 256 256 255 255 254 254 254 254 254 253 252 252 252 253 255 256 258 260 261 263 266 267 268 269 269 268 268 268 268 270 271 272 272 273 273 273 273 273 274 274 275 275 276 277 278 278 279 279 280 281 281 282 283 284 285 286 288 289 290 290 291 291 291 291 291 291 291 291 291 291 291 290 290 289 289 288 288 287 286 285 284 283 282
258 257 256 255 254 254 253 253 252 252 253 252 251 250 251 253 254 256 258 260 261 263 265 267 268 268 268 267 266 267 268 270 270 270 271 271 270 270 271 271 273 273 274 274 275 276 277 278 279 279 280 281 282 283 284 286 287 289 290 291 292 292 292 293 293 293 293 294 294 294 293 293 292 292 291 291 290 289 289 288 287 286 285 284 283
258 257 256 255 254 253 253 252 251 250 250 250 249 250 251 253 255 256 258 260 261 263 264 265 266 266 266 265 266 267 269 269 269 268 268 268 267 268 269 270 271 272 273 274 275 276 277 279 279 280 280 280 282 284 286 288 290 291 292 293 293 294 295 296 296 296 296 296 296 296 295 295 294 294 293 292 291 291 290 289 288 287 286 284 283
257 256 255 254 253 252 252 251 251 250 250 250 250 251 252 254 255 257 258 259 259 260 262 263 263 263 264 265 266 267 268 267 267 266 265 265 265 266 267 269 270 270 271 273 275 276 277 278 278 278 279 281 284 286 288 290 291 292 294 296 297 298 299 299 299 299 299 298 298 297 297 296 296 295 294 293 292 291 290 289 288 287 286 285 284
256 255 254 253 252 252 251 250 249 249 249 250 250 250 251 252 255 257 257 257 257 258 260 260 260 261 262 264 265 266 266 264 264 263 262 262 263 265 266 267 267 268 269 271 273 275 276 276 277 278 281 283 285 287 289 291 293 295 298 300 301 301 302 302 302 302 301 301 300 299 299 298 297 296 295 294 293 292 291 290 289 289 288 287 287
255 254 253 252 251 250 249 249 248 247 247 247 247 247 248 250 252 254 254 254 255 257 259 260 260 260 261 262 263 263 262 260 259 259 259 260 261 263 264 264 264 265 267 269 272 273 274 275 277 279 282 283 285 287 290 294 297 300 302 304 305 306 306 306 305 304 304 303 302 301 301 300 299 299 298 297 296 295 294 293 292 292 292 291 290
254 253 252 251 250 249 248 247 246 245 245 244 244 246 247 248 248 248 248 250 254 257 260 261 261 260 260 260 260 259 257 256 255 256 256 256 257 258 259 259 261 264 267 269 270 270 272 274 276 278 280 282 285 289 294 298 302 305 307 309 310 310 309 309 308 307 306 305 304 303 303 302 302 301 301 300 299 298 297 297 296 296 295 294 293
253 252 250 249 248 248 247 246 245 243 243 243 243 243 244 244 244 244 246 249 253 256 258 259 260 259 257 256 255 253 252 252 252 253 253 252 251 252 254 257 260 264 266 267 268 269 270 271 273 274 277 282 288 293 298 302 307 310 312 314 314 313 313 313 312 310 309 307 306 306 306 305 305 305 304 303 303 302 302 301 301 300 299 297 296
253 251 250 248 247 246 245 244 244 242 241 241 241 241 242 241 242 243 245 248 251 254 255 256 255 254 253 251 249 248 248 248 248 249 249 247 246 249 254 258 260 262 263 264 265 265 265 266 268 272 279 285 291 297 303 308 312 315 316 317 318 318 318 317 316 314 312 311 309 309 309 309 309 309 308 307 307 306 306 306 306 306 304 302 300
252 250 248 247 246 245 244 243 242 241 240 239 239 239 240 240 241 242 244 246 248 250 250 250 248 248 247 245 244 244 244 243 243 244 244 244 247 252 256 257 256 257 257 257 257 257 258 262 267 273 280 287 295 303 309 313 316 318 320 322 322 323 323 322 320 318 316 315 313 311 311 311 311 311 311 310 310 310 311 311 311 309 307 304 303
252 249 247 245 244 243 242 241 240 239 238 237 237 236 237 237 239 239 240 242 244 244 244 243 242 241 240 239 239 239 237 236 238 240 242 244 249 253 253 251 250 249 248 247 247 249 254 260 266 272 279 289 300 309 314 318 321 324 326 327 327 327 328 326 324 322 320 318 315 313 312 312 313 313 313 313 314 314 314 314 312 310 309 309 308
251 248 244 242 241 240 239 237 236 235 234 233 233 233 232 232 233 234 235 237 238 237 237 237 237 236 235 233 232 231 229 231 235 238 240 244 247 247 244 243 241 239 237 238 241 246 252 256 260 267 279 293 306 314 319 324 327 330 332 332 332 332 333 332 329 326 324 321 318 316 315 314 315 315 316 317 317 317 316 316 314 313 313 313 312
250 245 241 237 236 235 234 232 231 229 227 227 227 227 227 226 227 228 230 230 230 231 231 232 232 231 229 227 225 224 225 229 233 235 236 238 238 236 234 231 230 230 231 233 237 242 245 245 249 261 280 297 311 320 325 329 333 335 336 337 336 337 338 337 334 330 328 324 321 319 317 316 316 317 318 318 317 317 318 317 317 317 317 315 315
250 242 236 231 228 227 226 225 224 223 221 221 221 222 222 221 221 222 224 224 224 225 226 226 225 222 220 219 219 221 224 226 228 229 230 229 226 224 223 223 225 227 228 229 231 233 231 232 241 260 283 304 318 325 329 334 337 339 340 341 341 341 342 341 339 335 333 329 325 321 319 318 317 318 318 318 317 319 320 320 320 320 320 319 320
255 238 230 224 220 217 214 213 214 216 217 216 216 216 216 216 216 216 217 217 217 217 217 216 214 212 211 212 214 217 220 220 221 221 221 219 218 218 218 221 225 224 221 220 221 220 220 227 243 264 290 312 323 329 333 338 341 342 344 345 345 345 346 346 344 341 338 335 331 326 323 321 319 319 320 320 320 321 322 323 324 325 325 325 326
57 136 192 201 202 201 201 201 203 205 206 206 206 207 209 209 210 210 209 208 208 208 207 204 203 204 205 206 208 211 214 215 215 215 213 213 214 216 217 220 220 216 212 211 212 213 218 231 247 269 297 316 326 332 337 340 342 344 346 348 348 349 349 350 348 346 343 341 336 331 328 325 323 322 323 323 324 323 323 325 328 330 330 331 332
68 81 101 132 158 172 180 184 186 187 189 191 194 196 197 198 199 200 200 200 201 200 197 196 197 199 200 201 204 208 211 211 210 209 209 210 212 213 213 212 210 206 204 206 209 214 223 234 251 275 301 319 328 335 339 341 343 346 348 350 351 352 353 353 352 350 348 344 340 336 333 331 329 328 327 327 327 326 326 328 331 332 333 334 335
74 80 89 102 118 133 147 157 162 165 170 174 177 180 182 184 186 188 189 190 190 189 189 191 194 196 197 199 203 207 207 205 204 204 206 207 207 205 203 202 201 202 203 206 211 219 228 240 258 280 304 321 330 336 340 342 344 347 350 352 353 354 355 356 355 353 351 349 346 343 339 335 333 332 331 330 330 330 331 332 334 334 336 339 341
78 82 87 94 102 109 119 129 136 142 147 153 158 162 165 168 171 173 176 178 179 180 183 187 190 192 194 198 202 202 199 197 198 200 200 199 197 196 196 197 199 202 205 209 215 224 234 249 267 287 308 322 329 336 340 342 345 348 351 352 354 355 356 357 356 355 354 353 351 349 345 341 338 336 334 334 335 336 336 337 338 338 341 347 350
81 85 89 93 99 104 110 116 122 127 131 137 142 147 151 155 159 162 165 169 172 176 180 183 185 188 192 195 195 193 190 189 191 192 191 191 191 192 194 198 202 204 207 211 219 230 243 258 276 295 310 322 330 335 339 342 346 349 351 353 355 356 357 358 358 358 357 355 353 353 351 347 344 341 339 337 338 340 340 341 342 344 347 354 357
81 84 88 92 96 101 106 111 116 121 126 130 135 139 143 148 152 156 161 165 169 173 175 177 180 183 186 186 185 183 183 184 185 186 186 188 191 193 196 201 203 206 209 216 227 240 253 267 284 298 309 321 329 334 338 342 346 349 350 352 354 356 358 360 0 360 360 358 356 355 355 352 349 347 344 341 341 343 344 344 345 347 350 355 360
81 84 87 90 93 97 101 106 111 116 121 126 130 134 139 143 148 153 157 161 164 167 170 172 175 177 179 178 178 179 181 183 184 185 188 192 196 197 200 204 206 209 215 225 236 248 260 274 286 296 306 319 327 332 336 341 345 347 349 351 353 355 358 360 1 2 2 2 360 358 358 356 352 351 349 346 344 345 345 345 346 347 347 350 357
81 85 88 91 94 98 102 106 110 114 119 124 128 133 137 141 145 149 153 157 160 164 167 169 171 173 174 175 177 179 181 182 185 190 196 200 201 202 205 210 214 218 225 234 243 254 265 276 284 293 304 315 322 328 333 339 343 345 347 348 350 353 356 359 1 2 3 4 3 2 1 359 356 353 352 350 347 347 346 346 346 347 347 348 350
78 83 87 90 94 98 101 105 108 112 117 123 129 134 139 143 147 150 154 157 161 164 166 167 169 171 173 175 177 180 183 187 192 197 203 206 207 208 212 217 222 227 235 243 250 258 268 276 283 290 300 310 317 322 329 334 338 342 344 345 347 349 352 355 358 0 2 4 4 4 3 2 360 357 354 351 349 347 346 345 345 346 347 346 345